[[{"header":{"parameterUnit":"m.s-1","parameterCategory":1,"la1":30.2991,"la2":30.254,"lo1":-89.0895,"lo2":-89.0444,"dy":0.0017,"dx":0.0017,"nx":28,"ny":28,"refTime":"2025-01-25T03:00:00:Z","depth":0,"parameterNumber":2,"parameterNumberName":"U-component_of_WINDS"},"data":[0,0,0,0,0,0,0,0,0,0,0,0,0,0,0,0,0,0,0,0,0,0,0,0,0,0,0,0,0,0,0,0,0,0,0,0,0,0,0,0,0,0,0,0,0,0,0,0,0,0,0,0,0,0,0,0,0,0,-2.8648,-2.8649,0,-2.873,-2.8731,-2.8732,-2.8711,-2.871,-2.8708,-2.8707,-2.8792,-2.8796,-2.8799,0,0,0,0,0,0,0,0,0,0,0,0,0,-2.8474,-2.8477,-2.8648,-2.8649,-2.865,-2.873,-2.8731,-2.8732,-2.8712,-2.871,-2.8708,-2.8706,-2.8791,-2.8795,-2.88,0,0,0,0,0,0,0,0,0,0,0,0,0,-2.8552,-2.8478,-2.8648,-2.8649,-2.865,-2.873,-2.8731,-2.8733,-2.8712,-2.871,-2.8707,-2.8705,-2.8789,-2.8795,-2.88,-2.8884,0,0,-2.8818,-2.882,0,0,0,0,0,0,0,0,-2.8548,-2.8558,-2.8648,-2.8649,-2.865,-2.8708,-2.8701,-2.8783,-2.8713,-2.8689,-2.8707,-2.8704,-2.8766,-2.8774,-2.8794,-2.8888,-2.8892,-2.8818,-2.8822,-2.8824,-2.8826,0,0,0,0,0,0,0,-2.8542,-2.8555,-2.868,-2.8649,-2.8651,-2.8646,-2.8655,-2.8717,-2.874,-2.8691,-2.8689,-2.8699,-2.8766,-2.8789,-2.8796,-2.8893,-2.8818,-2.8823,-2.8827,-2.8829,-2.9059,-2.9062,0,0,0,0,0,0,-2.8536,-2.855,-2.8678,-2.8683,-2.8592,-2.8651,-2.8661,-2.8692,-2.8739,-2.8744,-2.8701,-2.8698,-2.878,-2.879,-2.8799,-2.89,-2.8824,-2.8829,-2.8833,-2.9057,-2.906,-2.9063,0,0,0,0,0,0,-2.8532,-2.8547,-2.8674,-2.8616,-2.8632,-2.8657,-2.8692,-2.8695,-2.8717,-2.8747,-2.8751,-2.872,-2.8779,-2.8791,-2.8863,-2.8902,-2.8832,-2.8837,-2.9054,-2.9058,-2.9061,-2.9101,0,0,0,0,0,0,-2.8527,-2.8546,-2.8578,-2.8617,-2.8635,-2.8737,-2.8695,-2.8698,-2.8727,-2.8724,-2.8766,-2.8771,-2.8778,-2.8855,-2.8869,-2.8909,-2.8842,-2.905,-2.9055,-2.906,-2.9097,-2.9106,-2.9115,0,0,0,0,0,-2.8521,-2.8586,-2.8579,-2.8595,-2.8675,-2.8739,-2.8749,-2.8756,-2.873,-2.8762,-2.8782,-2.8769,-2.8896,-2.8862,-2.8878,-2.892,-2.9048,-2.9054,-2.906,-2.9092,-2.9104,-2.9114,0,0,0,0,0,0,-2.855,-2.8591,-2.8584,-2.8664,-2.8698,-2.8735,-2.8776,-2.8768,-2.8811,-2.8806,-2.8813,-2.8823,-2.8896,-2.8916,-2.8877,-2.9004,-2.8968,-2.8978,-2.8988,-2.8999,-2.9008,-2.9001,-2.8846,0,0,0,0,0,-2.8566,-2.8614,-2.8647,-2.8714,-2.8731,-2.8751,-2.8779,-2.8781,-2.8817,-2.8831,-2.8856,-2.8892,-2.8939,-2.8971,-2.9016,-2.91,-2.9109,-2.9137,-2.9146,-2.9153,-2.9161,-2.9206,-2.9219,-2.9083,-2.9083,-2.9083,0,0,-2.8599,-2.8627,-2.8657,-2.872,-2.8747,-2.8797,-2.8763,-2.8817,-2.8854,-2.884,-2.8908,-2.8928,-2.8969,-2.9046,-2.9082,-2.9065,-2.9201,-2.9161,-2.9167,-2.917,-2.9214,-2.9227,-2.9238,-2.9087,-2.9086,-2.9086,0,0,-2.8683,-2.871,-2.8768,-2.8796,-2.8837,-2.885,-2.8864,-2.8903,-2.8915,-2.8984,-2.8975,-2.9019,-2.9102,-2.913,-2.9156,-2.9253,-2.9243,-2.9268,-2.9314,-2.9358,-2.9369,-2.9378,-2.9412,-2.9424,-2.9276,-2.9276,-2.9276,0,-2.8719,-2.8792,-2.8799,-2.8854,-2.8882,-2.8872,-2.8931,-2.8958,-2.9012,-2.9032,-2.9013,-2.9116,-2.9143,-2.9227,-2.9251,-2.9272,-2.9288,-2.9262,-2.9367,-2.9376,-2.9385,-2.9418,-2.943,-2.9279,-2.9278,-2.9278,-2.9278,0,-2.8834,-2.8885,-2.8928,-2.898,-2.9013,-2.907,-2.9086,-2.9119,-2.9119,-2.9134,-2.9205,-2.9237,-2.9288,-2.9309,-2.931,-2.9394,-2.9382,-2.9365,-2.9329,-2.9401,-2.9431,-2.9444,-2.9283,-2.9282,-2.9281,-2.928,0,0,-2.8937,-2.8993,-2.9008,-2.9032,-2.9077,-2.9117,-2.9174,-2.9224,-2.9252,-2.9291,-2.9338,-2.9409,-2.9393,-2.9422,-2.9427,-2.9466,-2.9539,-2.9444,-2.9445,-2.9459,-2.9633,-2.9644,-2.9658,-2.9534,-2.9536,-2.9538,-2.9629,0,-2.9025,-2.9124,-2.9132,-2.9221,-2.9269,-2.9261,-2.931,-2.9344,-2.936,-2.9403,-2.9421,-2.947,-2.9446,-2.9464,-2.9502,-2.9522,-2.9574,-2.9516,-2.9578,-2.958,-2.9566,-2.9674,-2.9687,-2.9771,-2.9641,-2.9643,-2.9645,0,-2.9139,-2.9181,-2.9275,-2.9313,-2.9333,-2.9378,-2.9425,-2.9466,-2.9504,-2.9513,-2.9546,-2.9545,-2.9604,-2.9568,-2.9649,-2.9609,-2.9635,-2.9649,-2.9653,-2.9657,-2.9615,-2.968,-2.9798,-2.981,-2.9664,-2.9662,-2.9661,0,-2.9204,-2.9283,-2.9349,-2.937,-2.9417,-2.9448,-2.947,-2.9505,-2.9535,-2.9577,-2.9596,-2.9645,-2.9671,-2.9708,-2.9721,-2.9693,-2.9801,-2.9766,-2.981,-2.9809,-2.9831,-2.9829,-2.9952,-2.9851,-2.9851,-2.985,-2.985,0,-2.9299,-2.9357,-2.9379,-2.9419,-2.9484,-2.9494,-2.9557,-2.9577,-2.9609,-2.9653,-2.965,-2.9692,-2.9707,-2.9752,-2.9762,-2.9827,-2.9839,-2.9848,-2.985,-2.9847,-2.9846,-2.9863,-2.9856,-2.9854,-2.9853,-2.9852,-2.9852,0,-2.9381,-2.9398,-2.947,-2.9509,-2.952,-2.9566,-2.9599,-2.9639,-2.9655,-2.9711,-2.9725,-2.975,-2.9802,-2.9819,-2.9883,-2.989,-2.9965,-2.9963,-2.9952,-2.9952,-2.9994,-2.9989,-3.0131,-3.015,-3.0038,-3.0039,-3.0039,0,-2.944,-2.9484,-2.9528,-2.9557,-2.958,-2.9627,-2.9658,-2.967,-2.9702,-2.9749,-2.9783,-2.9835,-2.9876,-2.9961,-2.9985,-3.0034,-3.0031,-3.0078,-3.0038,-3.0034,-3.003,-3.0026,-3.003,-3.0084,-3.0085,-3.0086,-3.0087,0,-2.9542,-2.9549,-2.9593,-2.964,-2.9676,-2.9714,-2.9751,-2.9775,-2.9793,-2.9829,-2.9883,-2.9915,-2.998,-3.0031,-3.0081,-3.0104,-3.0098,-3.01,-3.0112,-3.0109,-3.01,-3.0104,-2.997,-3.0096,-3.0095,-3.0094,-3.0094,-3.0094,-2.9613,-2.9652,-2.9689,-2.9738,-2.9767,-2.9801,-2.984,-2.9861,-2.9905,-2.9959,-2.9964,-3.0021,-3.0059,-3.0125,-3.015,-3.0196,-3.0182,-3.0201,-3.0205,-3.0209,-3.0211,-3.0095,-3.0205,-3.0205,-3.0205,-3.0204,-3.0204,0,-2.9714,-2.9738,-2.9783,-2.9834,-2.9873,-2.9865,-2.9906,-2.9938,-2.9989,-3.0025,-3.0066,-3.0128,-3.0178,-3.0206,-3.0257,-3.0287,-3.0286,-3.03,-3.0297,-3.0302,-3.0221,-3.0205,-3.03,-3.03,-3.03,-3.03,-3.03,-3.03,-2.9771,-2.9835,-2.9846,-2.9925,-2.9949,-3.0005,-3.0028,-3.006,-3.0089,-3.0157,-3.0199,-3.0217,-3.025,-3.0303,-3.0349,-3.0356,-3.0374,-3.0389,-3.0394,-3.0318,-3.0308,-3.0298,-3.0283,-3.0393,-3.0393,-3.0471,-3.0472,-3.0472]},{"header":{"parameterUnit":"m.s-1","parameterCategory":1,"la1":30.2991,"la2":30.254,"lo1":-89.0895,"lo2":-89.0444,"dy":0.0017,"dx":0.0017,"nx":28,"ny":28,"refTime":"2025-01-25T03:00:00:Z","depth":0,"parameterNumber":3,"parameterNumberName":"V-component_of_WINDS"},"data":[0,0,0,0,0,0,0,0,0,0,0,0,0,0,0,0,0,0,0,0,0,0,0,0,0,0,0,0,0,0,0,0,0,0,0,0,0,0,0,0,0,0,0,0,0,0,0,0,0,0,0,0,0,0,0,0,0,0,0.9379,0.938,0,0.9459,0.946,0.9461,0.9489,0.9489,0.9488,0.9488,0.9571,0.9574,0.9576,0,0,0,0,0,0,0,0,0,0,0,0,0,0.9253,0.9255,0.9379,0.938,0.9381,0.9459,0.946,0.9462,0.9489,0.9489,0.9488,0.9488,0.9571,0.9574,0.9577,0,0,0,0,0,0,0,0,0,0,0,0,0,0.9318,0.9255,0.9379,0.9404,0.9407,0.9459,0.946,0.9462,0.9489,0.9489,0.9488,0.9488,0.957,0.9573,0.9577,0.961,0,0,0.9588,0.959,0,0,0,0,0,0,0,0,0.9314,0.9322,0.94,0.9403,0.9406,0.9464,0.9446,0.9511,0.9489,0.9458,0.9488,0.9488,0.9536,0.9543,0.9559,0.9614,0.9617,0.9589,0.9591,0.9593,0.9594,0,0,0,0,0,0,0,0.9309,0.9319,0.9411,0.9401,0.9405,0.9413,0.9421,0.9459,0.9499,0.9461,0.9463,0.9472,0.9538,0.9555,0.9561,0.9618,0.9589,0.9592,0.9594,0.9596,0.9707,0.9708,0,0,0,0,0,0,0.93,0.9315,0.9408,0.9413,0.9358,0.9415,0.9425,0.9446,0.9498,0.9506,0.9472,0.9473,0.9549,0.9556,0.9564,0.9608,0.9593,0.9596,0.9598,0.9707,0.9707,0.9708,0,0,0,0,0,0,0.9297,0.9308,0.9405,0.9365,0.9378,0.9418,0.9441,0.9448,0.9465,0.9507,0.9515,0.9482,0.9549,0.9559,0.9599,0.9611,0.9598,0.9601,0.9706,0.9707,0.9708,0.9694,0,0,0,0,0,0,0.9294,0.9307,0.9319,0.9365,0.938,0.9438,0.9442,0.945,0.9471,0.9473,0.9519,0.9526,0.9549,0.9593,0.9602,0.9616,0.9604,0.9705,0.9706,0.9707,0.9694,0.9694,0.9695,0,0,0,0,0,0.9289,0.9312,0.932,0.9331,0.9396,0.9438,0.9447,0.9473,0.9472,0.9485,0.9513,0.9524,0.9608,0.9597,0.9608,0.9622,0.9704,0.9706,0.9707,0.9693,0.9694,0.9695,0,0,0,0,0,0,0.9266,0.9318,0.9327,0.9365,0.9397,0.9443,0.946,0.9473,0.9506,0.9506,0.9537,0.9548,0.9586,0.9608,0.9595,0.9658,0.9657,0.9661,0.9642,0.9644,0.9644,0.9639,0.9607,0,0,0,0,0,0.9265,0.9295,0.9339,0.9368,0.9384,0.9419,0.9439,0.9456,0.9491,0.9504,0.9535,0.9568,0.9603,0.9624,0.9658,0.9697,0.9708,0.9712,0.9713,0.9714,0.9717,0.9742,0.9745,0.9713,0.9713,0.9713,0,0,0.9264,0.9297,0.9313,0.9365,0.9392,0.9423,0.943,0.9462,0.9487,0.9509,0.955,0.9573,0.9613,0.9653,0.9673,0.9673,0.9728,0.9716,0.9716,0.9719,0.9744,0.9747,0.9749,0.9714,0.9714,0.9714,0,0,0.9279,0.9305,0.9334,0.9361,0.9401,0.9425,0.9432,0.9476,0.9493,0.9534,0.9552,0.9582,0.9639,0.9667,0.9689,0.9717,0.9729,0.9727,0.9731,0.9755,0.9757,0.976,0.9771,0.9775,0.9729,0.9729,0.9729,0,0.9272,0.9319,0.9347,0.9379,0.9402,0.9424,0.9454,0.9479,0.9529,0.9545,0.9544,0.9619,0.9647,0.9695,0.9702,0.9718,0.9729,0.9722,0.9755,0.9757,0.976,0.9772,0.9776,0.9729,0.9729,0.9729,0.9729,0,0.9311,0.9343,0.9361,0.9409,0.9434,0.9465,0.9498,0.9521,0.9536,0.956,0.9603,0.9638,0.968,0.9693,0.9708,0.9744,0.9743,0.9748,0.9748,0.9762,0.9774,0.9778,0.9728,0.9728,0.9729,0.9729,0,0,0.9311,0.9376,0.9382,0.9405,0.9453,0.9479,0.9512,0.9553,0.9572,0.9606,0.9636,0.9685,0.9691,0.9715,0.9734,0.9755,0.9777,0.9758,0.976,0.9762,0.9822,0.9819,0.9823,0.9786,0.9787,0.9788,0.9819,0,0.9333,0.9392,0.9418,0.9466,0.9498,0.9521,0.955,0.9583,0.9607,0.9638,0.9665,0.97,0.9704,0.9719,0.9741,0.977,0.979,0.9768,0.9815,0.9816,0.9805,0.9829,0.9825,0.9853,0.9824,0.9824,0.9825,0,0.9365,0.94,0.9451,0.9497,0.9511,0.9537,0.9578,0.9607,0.9646,0.9662,0.9691,0.971,0.9747,0.9743,0.9796,0.978,0.9801,0.9819,0.9821,0.9827,0.9822,0.9837,0.9862,0.9867,0.9832,0.9831,0.9831,0,0.9363,0.9422,0.9461,0.948,0.9534,0.9552,0.9576,0.9614,0.9638,0.9674,0.9691,0.9731,0.9753,0.9784,0.9814,0.9808,0.9864,0.9863,0.988,0.988,0.9891,0.989,0.9922,0.9903,0.9903,0.9903,0.9902,0,0.9385,0.9415,0.9461,0.9485,0.9521,0.9552,0.9587,0.9612,0.9647,0.9677,0.9699,0.9727,0.9764,0.9798,0.9821,0.9863,0.9872,0.9887,0.9893,0.9886,0.9884,0.9901,0.99,0.9904,0.9903,0.9903,0.9903,0,0.9388,0.9419,0.9464,0.9512,0.9525,0.9549,0.9592,0.9617,0.9642,0.9681,0.9692,0.9732,0.9773,0.9806,0.9858,0.9875,0.9918,0.9924,0.9905,0.9909,0.9925,0.9923,0.9969,0.9977,0.9951,0.9951,0.9951,0,0.94,0.9424,0.9476,0.9498,0.9521,0.9556,0.9581,0.9613,0.9639,0.9686,0.9706,0.9749,0.9784,0.9849,0.9883,0.9925,0.9933,0.9946,0.9939,0.9932,0.9935,0.9934,0.9938,0.9947,0.9947,0.9947,0.9947,0,0.9418,0.9433,0.9468,0.951,0.9539,0.9573,0.9608,0.9625,0.9664,0.9691,0.9734,0.9761,0.9817,0.9859,0.9905,0.993,0.9946,0.9949,0.9956,0.9949,0.9937,0.9946,0.9909,0.9948,0.9948,0.9948,0.9948,0.9948,0.9427,0.9451,0.9491,0.9531,0.956,0.9593,0.9619,0.9649,0.9685,0.9732,0.975,0.9793,0.9835,0.9897,0.9923,0.9959,0.996,0.9969,0.9972,0.9974,0.9974,0.9931,0.9967,0.9967,0.9967,0.9967,0.9967,0,0.9448,0.9476,0.9512,0.956,0.9592,0.9604,0.9643,0.9669,0.9707,0.9744,0.978,0.9829,0.9872,0.991,0.9955,0.9976,0.9985,0.9987,0.9986,0.9992,0.9969,0.996,0.9979,0.9979,0.9979,0.9979,0.9979,0.9979,0.9463,0.9504,0.9525,0.9582,0.961,0.9653,0.9675,0.9706,0.9736,0.9791,0.9826,0.9851,0.989,0.9938,0.9978,0.9988,1.0004,1.0005,1.0017,0.9995,0.9994,0.9992,0.9984,1.0008,1.0008,1.0038,1.0038,1.0038]}]]